Simultaneous Nadir Overpasses (SNOs) Predictions

Prediction of SNOs between GOES-15 and NOAA-20 Satellite Orbit:

Table of predicted SNOs for the next 14.0 days since TLE Epoch: 4/1/2023
Index Date Time (GOES-15) GOES-15 Lat,Lon NOAA-20 Lat,Lon Distance(km) Time Diff (sec)
1 04/02/2023 21:59:13 -0.16,-128.23 -0.14,-128.09 15.15 80
2 04/05/2023 09:59:39 0.16,-128.23 0.29,-128.84 68.69 80
3 04/06/2023 09:43:35 0.17,-128.25 -0.74,-124.31 449.12 80
4 04/07/2023 22:02:53 -0.16,-128.30 -0.45,-129.62 150.03 80
5 04/08/2023 21:46:49 -0.16,-128.31 0.58,-125.09 367.43 80
6 04/10/2023 10:05:57 0.16,-128.29 0.64,-130.35 235.89 80
7 04/11/2023 09:49:54 0.16,-128.29 -0.39,-125.83 280.91 80
8 04/12/2023 22:09:11 -0.16,-128.33 -0.79,-131.13 320.10 80
9 04/13/2023 21:53:07 -0.16,-128.33 0.20,-126.60 196.57 80
